Weather History for Hutchinson, KS

Change the Weather History Date:

Monday, August 5, 2013

  Actual Average Record
Temperature  
Mean Temperature 80 °F -  
Max Temperature 88 °F 88 °F 102 °F (2001)
Min Temperature 71 °F 64 °F 57 °F (2012)
Cooling Degree Days 14    
Growing Degree Days 30 (Base 50)    
Moisture  
Dew Point 71 °F    
Average Humidity 83    
Maximum Humidity 94    
Minimum Humidity 61    
Precipitation  
Precipitation 0.21 in - - ()
Sea Level Pressure  
Sea Level Pressure 29.90 in    
Wind  
Wind Speed 8 mph (ESE)    
Max Wind Speed 26 mph    
Max Gust Speed 44 mph    
Visibility 7 miles    
Events Rain , Thunderstorm    
Averages and records for this station are not official NWS values.
T = Trace of Precipitation, MM = Missing Value Source: NWS Daily Summary

Daily Weather History Graph

Daily Weather History Graph

Search for Another Location

Airport:

Trip Planner

Search our weather history database for the weather conditions in past years. The results will help you decide how hot, cold, wet, or windy it might be!

Date:

Astronomy

Aug. 05, 2013 Rise Set
Actual Time 6:37 AM CDT 8:36 PM CDT
Civil Twilight 6:09 AM CDT 9:05 PM CDT
Nautical Twilight 5:33 AM CDT 9:40 PM CDT
Astronomical Twilight 4:55 AM CDT 10:17 PM CDT
Moon 5:34 AM CDT (8/5) 7:38 PM CDT (8/5)
Length of Visible Light 14h 55m
Length of Day
13h 58m
Waning Crescent, 1% of the Moon is Illuminated
Aug 5
Waning Crescent
Aug 6
New
Aug 14
First Quarter
Aug 20
Full
Aug 28
Last Quarter

Hourly Weather History & Observations

Time (CDT) Temp. Heat Index Dew Point Humidity Pressure Visibility Wind Dir Wind Speed Gust Speed Precip Events Conditions
12:52 AM 73.9 °F - 71.1 °F 91% 29.95 in 5.0 mi SE 9.2 mph - N/A   Overcast
1:34 AM 73.4 °F - 71.6 °F 94% 30.00 in 5.0 mi ESE 8.1 mph - N/A   Overcast
1:52 AM 73.9 °F - 71.1 °F 91% 29.94 in 4.0 mi ESE 4.6 mph - N/A   Overcast
2:43 AM 73.4 °F - 71.6 °F 94% 29.99 in 2.0 mi ESE 6.9 mph - N/A   Overcast
2:52 AM 73.0 °F - 71.1 °F 93% 29.92 in 1.8 mi ESE 5.8 mph - N/A   Overcast
3:52 AM 73.0 °F - 71.1 °F 93% 29.92 in 1.5 mi ESE 6.9 mph - N/A   Overcast
4:30 AM 73.4 °F - 71.6 °F 94% 29.98 in 2.0 mi ESE 9.2 mph - N/A   Overcast
4:52 AM 73.0 °F - 71.1 °F 93% 29.91 in 1.8 mi ESE 9.2 mph - N/A   Overcast
5:39 AM 73.4 °F - 71.6 °F 94% 29.97 in 2.5 mi SE 9.2 mph - N/A   Overcast
5:47 AM 73.4 °F - 71.6 °F 94% 29.97 in 4.0 mi SE 6.9 mph - N/A   Overcast
5:52 AM 73.0 °F - 71.1 °F 93% 29.90 in 4.0 mi SE 8.1 mph - N/A   Overcast
6:36 AM 73.4 °F - 71.6 °F 94% 29.96 in 6.0 mi SSE 9.2 mph - N/A   Overcast
6:52 AM 73.9 °F - 71.1 °F 91% 29.89 in 6.0 mi SSE 10.4 mph - N/A   Overcast
7:52 AM 73.9 °F - 71.1 °F 91% 29.89 in 5.0 mi South 8.1 mph - N/A   Overcast
8:52 AM 75.0 °F - 71.1 °F 87% 29.88 in 6.0 mi South 5.8 mph - N/A   Overcast
9:06 AM 75.2 °F - 71.6 °F 89% 29.94 in 7.0 mi SSW 9.2 mph - N/A   Overcast
9:52 AM 79.0 °F - 71.1 °F 77% 29.88 in 8.0 mi SSW 4.6 mph - N/A   Overcast
10:16 AM 78.8 °F - 71.6 °F 78% 29.94 in 8.0 mi Variable 6.9 mph - N/A   Scattered Clouds
10:26 AM 80.6 °F 84.6 °F 71.6 °F 74% 29.94 in 8.0 mi Variable 3.5 mph - N/A   Mostly Cloudy
10:52 AM 81.0 °F 84.9 °F 71.1 °F 72% 29.86 in 8.0 mi South 6.9 mph - N/A   Mostly Cloudy
11:01 AM 80.6 °F 84.6 °F 71.6 °F 74% 29.93 in 8.0 mi SSW 5.8 mph - N/A   Scattered Clouds
11:52 AM 82.9 °F 87.5 °F 71.1 °F 67% 29.86 in 9.0 mi Calm Calm - N/A   Clear
12:52 PM 88.0 °F 95.6 °F 73.0 °F 61% 29.86 in 10.0 mi Variable 4.6 mph - N/A   Partly Cloudy
1:52 PM 87.1 °F 94.5 °F 73.0 °F 63% 29.86 in 10.0 mi NE 6.9 mph - N/A   Scattered Clouds
2:06 PM 86.0 °F 93.4 °F 73.4 °F 66% 29.93 in 10.0 mi NNE 6.9 mph - N/A   Mostly Cloudy
2:52 PM 86.0 °F 93.0 °F 73.0 °F 65% 29.86 in 10.0 mi NNE 9.2 mph - N/A   Overcast
3:52 PM 82.9 °F 88.8 °F 73.0 °F 72% 29.85 in 10.0 mi ENE 9.2 mph - N/A   Mostly Cloudy
4:06 PM 84.2 °F 90.9 °F 73.4 °F 70% 29.91 in 10.0 mi ENE 10.4 mph - N/A   Partly Cloudy
4:52 PM 84.0 °F 90.2 °F 73.0 °F 69% 29.83 in 10.0 mi NE 13.8 mph - N/A   Clear
5:52 PM 84.0 °F 90.2 °F 73.0 °F 69% 29.81 in 10.0 mi ENE 9.2 mph - N/A   Clear
6:52 PM 82.0 °F 87.4 °F 73.0 °F 74% 29.79 in 9.0 mi NE 4.6 mph - N/A   Clear
7:52 PM 81.0 °F 86.2 °F 73.9 °F 79% 29.79 in 9.0 mi NNE 6.9 mph - N/A   Clear
8:38 PM 80.6 °F 85.4 °F 73.4 °F 79% 29.86 in 10.0 mi NNE 8.1 mph - N/A Thunderstorm Scattered Clouds
8:52 PM 80.1 °F 84.5 °F 73.9 °F 81% 29.80 in 10.0 mi NE 5.8 mph - N/A Thunderstorm Partly Cloudy
9:33 PM 71.6 °F - 69.8 °F 94% 29.90 in 1.8 mi SSW 26.5 mph 43.7 mph 0.12 in Rain , Thunderstorm Heavy Thunderstorms and Rain
9:43 PM 71.6 °F - 68.0 °F 88% 29.90 in 3.0 mi WSW 11.5 mph 34.5 mph 0.15 in Rain , Thunderstorm Thunderstorms and Rain
9:52 PM 73.0 °F - 68.0 °F 84% 29.96 in 10.0 mi NNW 17.3 mph 21.9 mph 0.16 in Rain , Thunderstorm Light Thunderstorms and Rain
10:39 PM 71.6 °F - 68.0 °F 88% 29.91 in 10.0 mi ESE 15.0 mph - 0.05 in Rain Light Rain
10:52 PM 72.0 °F - 69.1 °F 91% 29.87 in 10.0 mi East 6.9 mph - 0.05 in Thunderstorm Thunderstorm
11:08 PM 71.6 °F - 69.8 °F 94% 29.93 in 10.0 mi East 6.9 mph - 0.00 in Rain Light Rain
11:52 PM 72.0 °F - 68.0 °F 87% 29.87 in 10.0 mi ESE 5.8 mph - 0.00 in Rain Light Rain